TAM3704 SBBR-SBBE

Flight info

Callsign TAM3704
Flight time N/A
Altitude 34000
Route ILKUS UZ26 IROMU
Aircraft A320/M-SDE3FGHIRWY/LB1

Departure

Time 2026-05-01 15:33
Airport Presidente Juscelino Kubitschek International Airport (SBBR)

Arrival

Time N/A
Airport Val de Cans/Júlio Cezar Ribeiro International Airport (SBBE)
Time Latitude Longitude Altitude Speed Heading
2026-05-01 15:03 -15.87266 -47.91846 3465 ft 0 kts 356°
2026-05-01 15:20 -15.87307 -47.91849 3463 ft 4 kts 24°
2026-05-01 15:20 -15.87325 -47.91864 3464 ft 4 kts 78°
2026-05-01 15:20 -15.87326 -47.91869 3464 ft 0 kts 86°
2026-05-01 15:22 -15.87326 -47.91868 3464 ft 1 kts 86°
2026-05-01 15:22 -15.87325 -47.91858 3464 ft 2 kts 86°
2026-05-01 15:22 -15.87324 -47.91835 3464 ft 4 kts 86°
2026-05-01 15:23 -15.87322 -47.91804 3464 ft 5 kts 86°
2026-05-01 15:23 -15.87319 -47.91762 3464 ft 6 kts 86°
2026-05-01 15:23 -15.87316 -47.91712 3464 ft 7 kts 89°
2026-05-01 15:23 -15.87346 -47.91670 3464 ft 9 kts 162°
2026-05-01 15:24 -15.87405 -47.91663 3464 ft 8 kts 175°
2026-05-01 15:24 -15.87453 -47.91660 3464 ft 6 kts 176°
2026-05-01 15:24 -15.87487 -47.91658 3464 ft 6 kts 177°
2026-05-01 15:24 -15.87587 -47.91653 3469 ft 18 kts 174°
2026-05-01 15:25 -15.87695 -47.91644 3470 ft 12 kts 180°
2026-05-01 15:25 -15.87738 -47.91705 3469 ft 10 kts 263°
2026-05-01 15:25 -15.87743 -47.91776 3470 ft 9 kts 266°
2026-05-01 15:25 -15.87746 -47.91834 3470 ft 8 kts 266°
2026-05-01 15:26 -15.87750 -47.91904 3470 ft 12 kts 266°
2026-05-01 15:26 -15.87757 -47.92004 3470 ft 14 kts 265°
2026-05-01 15:26 -15.87764 -47.92097 3470 ft 12 kts 266°
2026-05-01 15:26 -15.87769 -47.92177 3470 ft 10 kts 267°
2026-05-01 15:27 -15.87772 -47.92245 3471 ft 8 kts 267°
2026-05-01 15:27 -15.87775 -47.92302 3471 ft 8 kts 266°
2026-05-01 15:27 -15.87781 -47.92376 3471 ft 16 kts 266°
2026-05-01 15:28 -15.87795 -47.92594 3471 ft 13 kts 266°
2026-05-01 15:28 -15.87801 -47.92682 3471 ft 11 kts 265°
2026-05-01 15:28 -15.87806 -47.92756 3471 ft 9 kts 266°
2026-05-01 15:29 -15.87814 -47.92935 3471 ft 16 kts 268°
2026-05-01 15:29 -15.87819 -47.93060 3471 ft 19 kts 264°
2026-05-01 15:29 -15.87844 -47.93342 3473 ft 18 kts 265°
2026-05-01 15:30 -15.87858 -47.93567 3473 ft 14 kts 266°
2026-05-01 15:31 -15.87946 -47.93994 3476 ft 12 kts 181°
2026-05-01 15:31 -15.88054 -47.93954 3489 ft 13 kts 115°
2026-05-01 15:32 -15.88047 -47.93751 3488 ft 17 kts 88°
2026-05-01 15:32 -15.87979 -47.92642 3475 ft 136 kts 86°
2026-05-01 15:33 -15.87783 -47.89018 5131 ft 171 kts 85°
2026-05-01 15:34 -15.87548 -47.85382 7033 ft 167 kts 84°